Hourly Weather Arbuzinka

Today, 8 July, Wednesday

Time Temperature Precipitation Wind Pressure Humidity
00:00 +18°C° 0.3 mm 7 mps 744 mmHg 89%
01:00 +17°C° 0.3 mm 8 mps 744 mmHg 88%
02:00 +16°C° 0.3 mm 9 mps 745 mmHg 87%
03:00 +15°C° 0.1 mm 8 mps 745 mmHg 86%
04:00 +13°C° 0.1 mm 8 mps 746 mmHg 85%
05:00 +12°C° 0.1 mm 8 mps 746 mmHg 84%
06:00 +12°C° 0.1 mm 8 mps 747 mmHg 83%
07:00 +13°C° 0.1 mm 8 mps 747 mmHg 82%
08:00 +13°C° 0.1 mm 8 mps 748 mmHg 82%
09:00 +16°C° 0 mm 8 mps 748 mmHg 75%
10:00 +18°C° 0 mm 8 mps 748 mmHg 68%
11:00 +21°C° 0 mm 8 mps 749 mmHg 61%
12:00 +21°C° 0 mm 7 mps 749 mmHg 59%
13:00 +22°C° 0 mm 7 mps 749 mmHg 56%
14:00 +23°C° 0 mm 7 mps 749 mmHg 54%
15:00 +23°C° 0 mm 7 mps 750 mmHg 53%
16:00 +23°C° 0 mm 6 mps 750 mmHg 53%
17:00 +23°C° 0 mm 6 mps 750 mmHg 53%
18:00 +21°C° 0 mm 5 mps 750 mmHg 58%
19:00 +20°C° 0 mm 4 mps 750 mmHg 64%
20:00 +18°C° 0 mm 3 mps 751 mmHg 70%
21:00 +17°C° 0 mm 3 mps 751 mmHg 72%
22:00 +17°C° 0 mm 3 mps 751 mmHg 74%
23:00 +16°C° 0 mm 3 mps 751 mmHg 76%

Tomorrow, 9 July, Thursday

Time Temperature Precipitation Wind Pressure Humidity
00:00 +14°C° 0 mm 3 mps 752 mmHg 77%
01:00 +14°C° 0 mm 3 mps 752 mmHg 78%
02:00 +13°C° 0 mm 3 mps 752 mmHg 79%
03:00 +13°C° 0 mm 3 mps 752 mmHg 80%
04:00 +14°C° 0 mm 2 mps 752 mmHg 82%
05:00 +14°C° 0 mm 2 mps 752 mmHg 83%
06:00 +16°C° 0 mm 2 mps 752 mmHg 76%
07:00 +18°C° 0 mm 2 mps 753 mmHg 68%
08:00 +20°C° 0 mm 2 mps 753 mmHg 61%
09:00 +21°C° 0 mm 3 mps 753 mmHg 56%
10:00 +22°C° 0 mm 3 mps 753 mmHg 51%
11:00 +25°C° 0 mm 3 mps 753 mmHg 46%
12:00 +25°C° 0 mm 3 mps 753 mmHg 45%
13:00 +26°C° 0 mm 3 mps 753 mmHg 44%
14:00 +27°C° 0 mm 3 mps 753 mmHg 43%
15:00 +26°C° 0 mm 4 mps 753 mmHg 48%
16:00 +25°C° 0 mm 4 mps 753 mmHg 53%
17:00 +25°C° 0 mm 4 mps 752 mmHg 58%
18:00 +22°C° 0 mm 4 mps 753 mmHg 64%
19:00 +21°C° 0 mm 3 mps 753 mmHg 69%
20:00 +19°C° 0 mm 2 mps 753 mmHg 75%
21:00 +19°C° 0 mm 2 mps 753 mmHg 76%
22:00 +18°C° 0 mm 2 mps 753 mmHg 76%
23:00 +17°C° 0 mm 2 mps 753 mmHg 77%

Day after tomorrow, 10 July, Friday

Time Temperature Precipitation Wind Pressure Humidity
00:00 +17°C° 0 mm 2 mps 754 mmHg 79%
01:00 +17°C° 0 mm 2 mps 754 mmHg 80%
02:00 +17°C° 0 mm 2 mps 754 mmHg 81%
03:00 +17°C° 0 mm 2 mps 754 mmHg 80%
04:00 +18°C° 0 mm 1 mps 754 mmHg 80%
05:00 +18°C° 0 mm 1 mps 754 mmHg 79%
06:00 +19°C° 0 mm 1 mps 754 mmHg 76%
07:00 +20°C° 0 mm 1 mps 754 mmHg 72%
08:00 +21°C° 0 mm 1 mps 754 mmHg 68%
09:00 +23°C° 0 mm 1 mps 755 mmHg 61%
10:00 +22°C° 0 mm 0 mps 755 mmHg 55%
11:00 +24°C° 0 mm 0 mps 755 mmHg 48%
12:00 +27°C° 0 mm 1 mps 754 mmHg 45%
13:00 +27°C° 0 mm 1 mps 754 mmHg 43%
14:00 +28°C° 0 mm 2 mps 754 mmHg 40%
15:00 +28°C° 0 mm 2 mps 754 mmHg 40%
16:00 +28°C° 0 mm 1 mps 754 mmHg 40%
17:00 +28°C° 0 mm 1 mps 754 mmHg 40%
18:00 +26°C° 0 mm 1 mps 754 mmHg 45%
19:00 +25°C° 0 mm 2 mps 754 mmHg 50%
20:00 +23°C° 0 mm 2 mps 754 mmHg 56%
21:00 +21°C° 0 mm 2 mps 754 mmHg 59%
22:00 +21°C° 0 mm 2 mps 754 mmHg 62%
23:00 +20°C° 0 mm 3 mps 754 mmHg 65%

11 July, Saturday

Time Temperature Precipitation Wind Pressure Humidity
00:00 +19°C° 0 mm 3 mps 754 mmHg 65%
01:00 +19°C° 0 mm 3 mps 754 mmHg 66%
02:00 +19°C° 0 mm 3 mps 754 mmHg 66%
03:00 +18°C° 0 mm 3 mps 754 mmHg 66%
04:00 +18°C° 0 mm 3 mps 754 mmHg 66%
05:00 +18°C° 0 mm 3 mps 754 mmHg 66%
06:00 +20°C° 0 mm 3 mps 754 mmHg 62%
07:00 +22°C° 0 mm 3 mps 754 mmHg 57%
08:00 +25°C° 0 mm 3 mps 754 mmHg 53%
09:00 +26°C° 0 mm 3 mps 754 mmHg 49%
10:00 +27°C° 0 mm 3 mps 754 mmHg 46%
11:00 +29°C° 0 mm 3 mps 754 mmHg 42%
12:00 +29°C° 0 mm 3 mps 754 mmHg 41%
13:00 +30°C° 0 mm 3 mps 754 mmHg 40%
14:00 +30°C° 0 mm 3 mps 753 mmHg 38%
15:00 +30°C° 0 mm 3 mps 753 mmHg 38%
16:00 +30°C° 0 mm 3 mps 753 mmHg 39%
17:00 +30°C° 0 mm 4 mps 752 mmHg 39%
18:00 +28°C° 0 mm 3 mps 752 mmHg 43%
19:00 +26°C° 0 mm 3 mps 752 mmHg 48%
20:00 +24°C° 0 mm 3 mps 752 mmHg 52%
21:00 +22°C° 0 mm 3 mps 752 mmHg 53%
22:00 +22°C° 0 mm 3 mps 752 mmHg 54%
23:00 +21°C° 0 mm 3 mps 752 mmHg 55%

12 July, Sunday

Time Temperature Precipitation Wind Pressure Humidity
00:00 +20°C° 0 mm 3 mps 752 mmHg 57%
01:00 +20°C° 0 mm 3 mps 752 mmHg 59%
02:00 +19°C° 0 mm 3 mps 751 mmHg 61%
03:00 +19°C° 0 mm 3 mps 751 mmHg 64%
04:00 +19°C° 0 mm 3 mps 751 mmHg 67%
05:00 +18°C° 0 mm 3 mps 751 mmHg 70%
06:00 +21°C° 0 mm 3 mps 751 mmHg 65%
07:00 +24°C° 0 mm 3 mps 751 mmHg 60%
08:00 +26°C° 0 mm 3 mps 751 mmHg 55%
09:00 +27°C° 0 mm 3 mps 751 mmHg 50%
10:00 +28°C° 0 mm 3 mps 751 mmHg 45%
11:00 +29°C° 0 mm 2 mps 751 mmHg 40%
12:00 +30°C° 0 mm 3 mps 750 mmHg 37%
13:00 +31°C° 0 mm 3 mps 750 mmHg 35%
14:00 +31°C° 0 mm 3 mps 749 mmHg 33%
15:00 +31°C° 0 mm 3 mps 749 mmHg 33%
16:00 +31°C° 0 mm 2 mps 748 mmHg 34%
17:00 +31°C° 0 mm 2 mps 748 mmHg 34%
18:00 +29°C° 0 mm 3 mps 748 mmHg 39%
19:00 +27°C° 0 mm 3 mps 748 mmHg 44%
20:00 +25°C° 0 mm 3 mps 748 mmHg 49%
21:00 +24°C° 0 mm 3 mps 748 mmHg 51%
22:00 +24°C° 0 mm 3 mps 748 mmHg 52%
23:00 +22°C° 0 mm 3 mps 748 mmHg 53%

13 July, Monday

Time Temperature Precipitation Wind Pressure Humidity
00:00 +21°C° 0 mm 3 mps 748 mmHg 57%
01:00 +21°C° 0 mm 3 mps 748 mmHg 61%
02:00 +20°C° 0 mm 3 mps 748 mmHg 65%
03:00 +19°C° 0 mm 4 mps 747 mmHg 70%
04:00 +19°C° 0 mm 4 mps 747 mmHg 75%
05:00 +19°C° 0 mm 5 mps 747 mmHg 80%
06:00 +19°C° 0.4 mm 5 mps 747 mmHg 82%
07:00 +19°C° 0.4 mm 6 mps 747 mmHg 84%
08:00 +17°C° 0.4 mm 6 mps 747 mmHg 85%
09:00 +19°C° 1.3 mm 5 mps 747 mmHg 85%
10:00 +19°C° 1.3 mm 5 mps 747 mmHg 85%
11:00 +19°C° 1.3 mm 4 mps 747 mmHg 84%
12:00 +19°C° 0.6 mm 5 mps 747 mmHg 85%
13:00 +17°C° 0.6 mm 5 mps 747 mmHg 86%
14:00 +17°C° 0.6 mm 5 mps 746 mmHg 87%
15:00 +17°C° 0.1 mm 6 mps 746 mmHg 87%
16:00 +17°C° 0.1 mm 6 mps 746 mmHg 86%
17:00 +16°C° 0.1 mm 6 mps 746 mmHg 86%
18:00 +16°C° 0 mm 6 mps 746 mmHg 86%
19:00 +15°C° 0 mm 6 mps 746 mmHg 87%
20:00 +15°C° 0 mm 6 mps 746 mmHg 88%
21:00 +15°C° 0 mm 6 mps 746 mmHg 88%
22:00 +15°C° 0 mm 5 mps 746 mmHg 88%
23:00 +15°C° 0 mm 5 mps 746 mmHg 88%
Show more